Tracking 19831 objects as of 23-Aug-2019
HD Live streaming from Space Station
objects crossing your sky now

PROBA 1

Track PROBA 1 now!
10-day predictions
PROBA 1 is classified as:


NORAD ID: 26958
Int'l Code: 2001-049B
Perigee: 537.4 km
Apogee: 639.1 km
Inclination: 97.7 °
Period: 96.3 minutes
Semi major axis: 6959 km
RCS: Unknown
Launch date: October 22, 2001
Source: European Space Agency (ESA)
Launch site: SRIHARIKOTA (SRI)

First a technology demonstration, then extended for one year for remote sensing; looks like a washing machine.
aabbcc
Your satellite tracking list
Your tracking list is empty




NASA's NSSDC Master Catalog

Two Line Element Set (TLE):
1 26958U 01049B   19235.42782206  .00000126  00000-0  16160-4 0  9992
2 26958  97.6737 190.3769 0073072 178.6532 181.4916 14.95398612970652
Source of the keplerian elements: AFSPC